Regional Weather Roundup
Issued by NWS

Home | Current Version | Previous Version | Text Only | Print | Product List | Glossary Off
Versions: 1 2 3 4 5 6 7 8 9 10 11 12 13 14 15 16 17 18 19 20 21 22 23 24 25 26 27 28 29 30 31 32 33 34 35 36 37 38 39 40 41 42 43 44 45 46 47 48 49 50

000
ASUS43 KMKX 251200
RWRWI

WISCONSIN REGIONAL WEATHER ROUNDUP
NATIONAL WEATHER SERVICE MILWAUKEE/SULLIVAN WI
700 AM CDT SAT MAR 25 2017

NOTE: "FAIR" INDICATES FEW OR NO CLOUDS BELOW 12,000 FEET WITH NO
SIGNIFICANT WEATHER AND/OR OBSTRUCTIONS TO VISIBILITY.

WIZ001-002-006>008-014>016-023>028-251300-
NORTHWEST WISCONSIN

CITY           SKY/WX    TMP DP  RH WIND       PRES   REMARKS
SUPERIOR ARPT  CLOUDY    33  29  85 E13       30.27S WCI  24
ASHLAND        CLOUDY    33  29  85 E12       30.28S WCI  24
6HR MIN TEMP:  33; 6HR MAX TEMP:  34;

HAYWARD        CLOUDY    35  29  78 NE6       30.23R WCI  30
6HR MIN TEMP:  35; 6HR MAX TEMP:  36;

SIREN          CLOUDY    34  30  86 CALM      30.22S
CUMBERLAND     CLOUDY    34  30  86 E9        30.20R WCI  26
RICE LAKE      CLOUDY    35  31  83 CALM      30.22R
CHETEK         CLOUDY    35  31  85 E6        30.20F WCI  30
LADYSMITH      CLOUDY    35  31  85 E9        30.23R WCI  28
EAU CLAIRE     CLOUDY    36  30  79 E16G22    30.18S WCI  26
MENOMONIE      CLOUDY    37  32  83 NE10G16   30.19S WCI  29
NEW RICHMOND   CLOUDY    35  30  82 NE10      30.17F WCI  27
OSCEOLA        CLOUDY    37  31  80 NE7       30.22S WCI  31
$$

WIZ003>005-009-010-017-018-251300-
NORTH CENTRAL WISCONSIN

CITY           SKY/WX    TMP DP  RH WIND       PRES   REMARKS
MANITOWISH WTR CLOUDY    31  31 100 E8        30.23R WCI  24
ARBOR VITAE    LGT SNOW  34  32  93 CALM      30.22R
WOODRUFF       LGT SNOW  34  32  93 CALM      30.22R
RHINELANDER    CLOUDY    34  30  85 E12       30.23R WCI  25
6HR MIN TEMP:  33; 6HR MAX TEMP:  34;

EAGLE RIVER    CLOUDY    32  32  99 E6        30.23R WCI  26
LAND O LAKES   CLOUDY    32  32  99 CALM      30.26R
PHILLIPS       CLOUDY    33  31  93 E7        30.21R WCI  26
TOMAHAWK       CLOUDY    32  28  86 E7        30.23R WCI  26
MEDFORD        CLOUDY    32  30  92 E12       30.19R WCI  23
MERRILL        CLOUDY    33  30  88 E9G16     30.22R WCI  26
$$

WIZ029-030-035-036-043>047-251300-
CENTRAL WISCONSIN

CITY           SKY/WX    TMP DP  RH WIND       PRES   REMARKS
WAUSAU         CLOUDY    34  30  85 NE14      30.19S WCI  25
6HR MIN TEMP:  33; 6HR MAX TEMP:  34;

MOSINEE        CLOUDY    34  32  93 NE14G20   30.19S WCI  24
MARSHFIELD     CLOUDY    34  30  85 NE15G23   30.16S WCI  24
6HR MIN TEMP:  33; 6HR MAX TEMP:  35;

STEVENS POINT  CLOUDY    32  31  96 E14G21    30.17F WCI  22
WAUPACA        CLOUDY    37  33  87 NE8       30.19R WCI  30
WAUTOMA        CLOUDY    35  33  92 NE15      30.16R WCI  25
6HR MIN TEMP:  34; 6HR MAX TEMP:  36;

WISC RAPIDS    CLOUDY    35  32  88 E14G21    30.17S WCI  26
6HR MIN TEMP:  34; 6HR MAX TEMP:  36;

CAMP DOUGLAS   CLOUDY    36  32  87 VRB6      30.14F WCI  31
$$

WIZ011>013-019>022-031-037>040-048>050-251300-
NORTHEAST WISCONSIN

CITY           SKY/WX    TMP DP  RH WIND       PRES   REMARKS
ANTIGO         CLOUDY    32  30  93 E15G21    30.22R WCI  22
SHAWANO        CLOUDY    36  32  87 NE8       30.22S WCI  29
OCONTO         MOCLDY    34  32  92 NE8       30.23S WCI  27
STURGEON BAY   CLOUDY    35  32  88 NE14      30.24R WCI  26
6HR MIN TEMP:  34; 6HR MAX TEMP:  35;

GREEN BAY      CLOUDY    35  35 100 NE16      30.21R WCI  25
6HR MIN TEMP:  35; 6HR MAX TEMP:  35; 6HR PCP: TRACE;

MANITOWOC      NOT AVBL
APPLETON       CLOUDY    34  34 100 NE15G21   30.16R WCI  24
CLINTONVILLE   CLOUDY    34  32  93 NE10      30.20S WCI  26
OSHKOSH        CLOUDY    35  33  92 NE14      30.16R FOG     WCI  26
6HR MIN TEMP:  34; 6HR MAX TEMP:  35; 6HR PCP: TRACE;

$$

WIZ032>034-041-042-053>061-251300-
SOUTHWEST WISCONSIN

CITY           SKY/WX    TMP DP  RH WIND       PRES   REMARKS
LA CROSSE      CLOUDY    38  33  82 E10G18    30.12S HAZE    WCI  31
6HR MIN TEMP:  38; 6HR MAX TEMP:  41;

SPARTA         CLOUDY    35  33  92 E10       30.15S WCI  27
VIROQUA        CLOUDY    34  34  99 NE18      30.07F WCI  23
BOSCOBEL       CLOUDY    38  34  85 NE13G21   30.09R WCI  30
6HR MIN TEMP:  38; 6HR MAX TEMP:  39; 6HR PCP: TRACE;

PRAIRIE DU CHI CLOUDY    36  35  96 NE9G16    30.06S WCI  29
PLATTEVILLE    CLOUDY    37  37 100 NE21G28   30.01F WCI  26
$$

WIZ056-057-062-063-064-067-068-251300-
SOUTH CENTRAL WISCONSIN

CITY           SKY/WX    TMP DP  RH WIND       PRES   REMARKS
REEDSBURG      CLOUDY    34  34 100 NE13G18   30.11F WCI  25
BARABOO/DELLS  CLOUDY    34  33  96 NE13      30.11F FOG     WCI  25
LONE ROCK      CLOUDY    37  33  85 NE13      30.10S WCI  29
MINERAL POINT  CLOUDY    36  36 100 NE17G25   30.03F WCI  25
MADISON        CLOUDY    36  34  92 NE14      30.10R WCI  27
6HR MIN TEMP:  36; 6HR MAX TEMP:  37; 6HR PCP:  0.01;

MIDDLETON      CLOUDY    37  35  94 NE14      30.10S WCI  28
WATERTOWN      CLOUDY    36  36 100 NE12G20   30.09F WCI  28
MONROE         CLOUDY    36  36 100 NE20      30.03F WCI  25
JANESVILLE     CLOUDY    39  39 100 NE17G23   30.07R WCI  30
$$

WIZ051-052-058>065-066-070>072-251300-
SOUTHEAST WISCONSIN

CITY           SKY/WX    TMP DP  RH WIND       PRES   REMARKS
MILWAUKEE      CLOUDY    38  36  92 NE15      30.12R WCI  29
6HR MIN TEMP:  37; 6HR MAX TEMP:  38; 6HR PCP:  0.04;

WAUKESHA       CLOUDY    36  34  93 NE13G21   30.11S WCI  27
MILWAUKEE/TIMM CLOUDY    36  32  87 NE13G21   30.12S WCI  27
RACINE         CLOUDY    38  36  92 NE16      30.12R WCI  29
6HR MIN TEMP:  37; 6HR MAX TEMP:  38; 6HR PCP:  0.01;

KENOSHA        CLOUDY    39  37  92 NE10      30.09R WCI  32
6HR MIN TEMP:  37; 6HR MAX TEMP:  39; 6HR PCP:  0.05;

FOND DU LAC    CLOUDY    36  33  89 NE13      30.16R WCI  27
6HR MIN TEMP:  36; 6HR MAX TEMP:  37; 6HR PCP: TRACE;

SHEBOYGAN      CLOUDY    36  34  92 NE21      30.17R FOG     WCI  25
6HR MIN TEMP:  36; 6HR MAX TEMP:  36; 6HR PCP: TRACE;

WEST BEND      CLOUDY    36  36 100 NE12G17   30.14R FOG     WCI  27
JUNEAU         CLOUDY    35  34  95 NE10      30.13R WCI  27
$$

LSZ147-162-251300-
LAKE SUPERIOR

STATION/POSITION TIME  TEMP    WIND        PRES    WAVE
                       AIR SEA DIR/SP/G            HT/PER
                 (UTC) (F)     (DEG/KT/KT) (MB)    (FT/S)
DEVILS ISLAND    1100   34      70/ 20/ 23 1026.9R
PORT WING        1140   34      60/  7/ 12 1025.4S
SAXON HARBOR     1130   33      50/  8/  9 1025.1S
$$

LMZ867-665-643>646-251300-
LAKE MICHIGAN

STATION/POSITION TIME  TEMP    WIND        PRES    WAVE
                       AIR SEA DIR/SP/G            HT/PER
                 (UTC) (F)     (DEG/KT/KT) (MB)    (FT/S)
CHAMBERS ISLAND  1140   33      20/ 11/ 14 1024.4R
NORTHPORT PIER   1140   35      50/ 11/ 14 1025.1R
SISTER BAY       0951   35      20/  7/ 10   N/A
KEWAUNEE LAKESHO 1130   36      40/ 14/ 20 1022.5R
SHEBOYGAN LAKESH 1100   36      20/ 18/ 20 1021.7R
PORT WASHINGTON  1140   37      30/ 13/ 21 1021.7R
MILWAUKEE LAKESH 1140   37      30/ 18/ 21   N/A
KENOSHA   LAKESH 1100   37      20/ 18/ 20 1018.6
$$

TC  - TEMPERATURE IN CELSIUS
VSB - VISIBILITY IN STATUTE MILES
WCI - WIND CHILL INDEX
HX  - HEAT INDEX





USA.gov is the U.S. government's official web portal to all federal, state and local government web resources and services.